This is the latest recevied weather packets stored in our database for station/object EA3HRE-13. If no packets are shown the sender has not sent any weather packets the latest 10 day(s).
| Time | Temp. | Humidity | Pressure | Rain* | Wind** | Luminosity | Snow |
|---|---|---|---|---|---|---|---|
| 1787945943 | 25° C | 100% | 1005.7 hPa | 0 mm | - | - | - |
| 1787945313 | 25.56° C | 100% | 1010.2 hPa | 0 mm | - | - | - |
| 1787944713 | 25.56° C | 100% | 1005 hPa | 0 mm | - | - | - |
| 1787944112 | 26.11° C | 100% | 1005.2 hPa | 0 mm | - | - | - |
| 1787943482 | 26.11° C | 100% | 1005.2 hPa | 0 mm | - | - | - |
| 1787942852 | 26.67° C | 100% | 1005.1 hPa | 0 mm | - | - | - |
| 1787942252 | 27.22° C | 100% | 1004.9 hPa | 0 mm | - | - | - |
| 1787941652 | 27.22° C | 100% | 1004.9 hPa | 0 mm | - | - | - |
| 1787941052 | 27.78° C | 100% | 1005 hPa | 0 mm | - | - | - |
| 1787940452 | 27.78° C | 100% | 1004.8 hPa | 0 mm | - | - | - |
| 1787939852 | 28.33° C | 100% | 1004.7 hPa | 0 mm | - | - | - |
| 1787939251 | 28.89° C | 100% | 1004.6 hPa | 0 mm | - | - | - |
| 1787938651 | 29.44° C | 100% | 1005 hPa | 0 mm | - | - | - |
| 1787938051 | 29.44° C | 100% | 1004.9 hPa | 0 mm | - | - | - |
| 1787937421 | 29.44° C | 100% | 1005.1 hPa | 0 mm | - | - | - |
| 1787936821 | 30° C | 100% | 1005 hPa | 0 mm | - | - | - |
| 1787936221 | 20.56° C | 100% | 1005.1 hPa | 0 mm | - | - | - |
| 1787935591 | 29.44° C | 100% | 1005.3 hPa | 0 mm | - | - | - |
| 1787934991 | 29.44° C | 100% | 1005.1 hPa | 0 mm | - | - | - |
| 1787934361 | 29.44° C | 100% | 1005 hPa | 0 mm | - | - | - |
| 1787933761 | 29.44° C | 100% | 1005.2 hPa | 0 mm | - | - | - |
| 1787933160 | 30° C | 100% | 1005.1 hPa | 0 mm | - | - | - |
| 1787932530 | 30° C | 100% | 1005.2 hPa | 0 mm | - | - | - |
| 1787931900 | 30° C | 100% | 1005.2 hPa | 0 mm | - | - | - |
| 1787931300 | 30° C | 100% | 1005.2 hPa | 0 mm | - | - | - |
* Rain latest hour (hover to see other rain measurements)
** Current wind speed in m/s (hover to see current wind gust speed)